When you browse on this site, cookies collect data to enhance your experience and personalize the content and advertising you see.
Visit our Privacy Policy to learn more. By continuing to use the site, you agree to this use of cookies and data.
  • în România
  • Lista ţărilor
  • Pe 7 zile
  • Temperatura apei
  • Hartă satelitară
  • Meteo pe hartă
  • Widget-uri
  • user-avatar
    Intrare

    Meteo pe oră la Zhuravki

    Astăzi, 19 Martie, Marţi

    Timp Temperatura Precipitaţii Vânt Presiune Umiditate
    00:00 +2°C° 0.5 mm 3 m/s 740 mmHg 93%
    01:00 +2°C° 0.5 mm 2 m/s 740 mmHg 94%
    02:00 +2°C° 0.5 mm 2 m/s 740 mmHg 96%
    03:00 +2°C° 0.5 mm 2 m/s 740 mmHg 96%
    04:00 +3°C° 0.5 mm 1 m/s 740 mmHg 97%
    05:00 +2°C° 0.5 mm 1 m/s 740 mmHg 97%
    06:00 +3°C° 0 mm 1 m/s 741 mmHg 95%
    07:00 +3°C° 0 mm 1 m/s 741 mmHg 93%
    08:00 +3°C° 0 mm 2 m/s 741 mmHg 91%
    09:00 +4°C° 0 mm 2 m/s 741 mmHg 88%
    10:00 +4°C° 0 mm 2 m/s 741 mmHg 84%
    11:00 +5°C° 0 mm 2 m/s 742 mmHg 81%
    12:00 +5°C° 0 mm 3 m/s 742 mmHg 79%
    13:00 +5°C° 0 mm 3 m/s 742 mmHg 77%
    14:00 +7°C° 0 mm 3 m/s 742 mmHg 75%
    15:00 +5°C° 0 mm 3 m/s 742 mmHg 79%
    16:00 +5°C° 0 mm 2 m/s 742 mmHg 83%
    17:00 +4°C° 0 mm 2 m/s 742 mmHg 87%
    18:00 +3°C° 0 mm 2 m/s 743 mmHg 88%
    19:00 +2°C° 0 mm 2 m/s 743 mmHg 89%
    20:00 +1°C° 0 mm 2 m/s 743 mmHg 91%
    21:00 +1°C° 0 mm 2 m/s 743 mmHg 91%
    22:00 +1°C° 0 mm 2 m/s 743 mmHg 92%
    23:00 -1°C° 0 mm 2 m/s 743 mmHg 92%

    Mâine, 20 Martie, Miercuri

    Timp Temperatura Precipitaţii Vânt Presiune Umiditate
    00:00 -1°C° 0 mm 2 m/s 744 mmHg 92%
    01:00 -1°C° 0 mm 2 m/s 744 mmHg 92%
    02:00 -1°C° 0 mm 3 m/s 744 mmHg 92%
    03:00 -2°C° 0 mm 3 m/s 744 mmHg 92%
    04:00 -2°C° 0 mm 3 m/s 744 mmHg 93%
    05:00 -2°C° 0 mm 3 m/s 744 mmHg 93%
    06:00 -1°C° 0 mm 3 m/s 744 mmHg 90%
    07:00 -1°C° 0 mm 3 m/s 745 mmHg 87%
    08:00 -1°C° 0 mm 4 m/s 745 mmHg 84%
    09:00 -1°C° 0 mm 4 m/s 745 mmHg 82%
    10:00 0°C° 0 mm 4 m/s 745 mmHg 79%
    11:00 0°C° 0 mm 4 m/s 746 mmHg 77%
    12:00 0°C° 0 mm 4 m/s 746 mmHg 76%
    13:00 +1°C° 0 mm 4 m/s 746 mmHg 76%
    14:00 +1°C° 0 mm 4 m/s 746 mmHg 75%
    15:00 +1°C° 0 mm 3 m/s 746 mmHg 76%
    16:00 +1°C° 0 mm 3 m/s 746 mmHg 78%
    17:00 +1°C° 0 mm 3 m/s 746 mmHg 79%
    18:00 0°C° 0 mm 3 m/s 746 mmHg 81%
    19:00 -1°C° 0 mm 3 m/s 746 mmHg 83%
    20:00 -2°C° 0 mm 3 m/s 746 mmHg 85%
    21:00 -2°C° 0 mm 3 m/s 745 mmHg 85%
    22:00 -2°C° 0 mm 3 m/s 744 mmHg 84%
    23:00 -2°C° 0 mm 3 m/s 744 mmHg 83%

    Poimâine, 21 Martie, Joi

    Timp Temperatura Precipitaţii Vânt Presiune Umiditate
    00:00 -1°C° 0.2 mm 3 m/s 743 mmHg 85%
    01:00 -1°C° 0.2 mm 3 m/s 743 mmHg 87%
    02:00 -2°C° 0.2 mm 4 m/s 742 mmHg 89%
    03:00 -1°C° 0.3 mm 3 m/s 742 mmHg 90%
    04:00 -1°C° 0.3 mm 3 m/s 741 mmHg 90%
    05:00 -1°C° 0.3 mm 3 m/s 741 mmHg 91%
    06:00 0°C° 0.1 mm 3 m/s 741 mmHg 88%
    07:00 -1°C° 0.1 mm 4 m/s 742 mmHg 85%
    08:00 -1°C° 0.1 mm 4 m/s 742 mmHg 83%
    09:00 0°C° 0 mm 4 m/s 743 mmHg 80%
    10:00 0°C° 0 mm 4 m/s 743 mmHg 77%
    11:00 0°C° 0 mm 4 m/s 744 mmHg 75%
    12:00 0°C° 0 mm 4 m/s 744 mmHg 74%
    13:00 +1°C° 0 mm 4 m/s 744 mmHg 73%
    14:00 +1°C° 0 mm 4 m/s 745 mmHg 72%
    15:00 +1°C° 0 mm 4 m/s 745 mmHg 74%
    16:00 +1°C° 0 mm 3 m/s 745 mmHg 77%
    17:00 +1°C° 0 mm 3 m/s 745 mmHg 79%
    18:00 +1°C° 0 mm 2 m/s 746 mmHg 84%
    19:00 -1°C° 0 mm 2 m/s 746 mmHg 88%
    20:00 -2°C° 0 mm 2 m/s 746 mmHg 92%
    21:00 -2°C° 0 mm 2 m/s 746 mmHg 93%
    22:00 -3°C° 0 mm 2 m/s 746 mmHg 93%
    23:00 -3°C° 0 mm 2 m/s 746 mmHg 94%

    22 Martie, Vineri

    Timp Temperatura Precipitaţii Vânt Presiune Umiditate
    00:00 -3°C° 0 mm 2 m/s 745 mmHg 93%
    01:00 -2°C° 0 mm 2 m/s 745 mmHg 93%
    02:00 -2°C° 0 mm 2 m/s 745 mmHg 93%
    03:00 -1°C° 0 mm 3 m/s 744 mmHg 91%
    04:00 -1°C° 0 mm 3 m/s 744 mmHg 89%
    05:00 0°C° 0 mm 3 m/s 744 mmHg 87%
    06:00 +1°C° 0 mm 3 m/s 743 mmHg 88%
    07:00 +1°C° 0 mm 3 m/s 743 mmHg 89%
    08:00 +2°C° 0 mm 3 m/s 743 mmHg 91%
    09:00 +2°C° 0.3 mm 3 m/s 742 mmHg 90%
    10:00 +3°C° 0.3 mm 4 m/s 742 mmHg 90%
    11:00 +3°C° 0.3 mm 4 m/s 741 mmHg 90%
    12:00 +4°C° 0.1 mm 4 m/s 740 mmHg 89%
    13:00 +4°C° 0.1 mm 4 m/s 739 mmHg 89%
    14:00 +5°C° 0.1 mm 5 m/s 739 mmHg 89%
    15:00 +5°C° 0.1 mm 5 m/s 738 mmHg 89%
    16:00 +5°C° 0.1 mm 5 m/s 737 mmHg 88%
    17:00 +4°C° 0.1 mm 6 m/s 736 mmHg 88%
    18:00 +3°C° 0.2 mm 6 m/s 736 mmHg 82%
    19:00 +2°C° 0.2 mm 6 m/s 736 mmHg 75%
    20:00 0°C° 0.2 mm 7 m/s 736 mmHg 68%
    21:00 0°C° 0 mm 7 m/s 736 mmHg 70%
    22:00 -1°C° 0 mm 7 m/s 736 mmHg 72%
    23:00 -2°C° 0 mm 7 m/s 737 mmHg 75%

    23 Martie, Sâmbătă

    Timp Temperatura Precipitaţii Vânt Presiune Umiditate
    00:00 -2°C° 0 mm 7 m/s 737 mmHg 75%
    01:00 -2°C° 0 mm 7 m/s 737 mmHg 75%
    02:00 -2°C° 0 mm 7 m/s 738 mmHg 75%
    03:00 -3°C° 0 mm 7 m/s 738 mmHg 75%
    04:00 -3°C° 0 mm 7 m/s 739 mmHg 76%
    05:00 -3°C° 0 mm 6 m/s 739 mmHg 77%
    06:00 -3°C° 0 mm 6 m/s 740 mmHg 75%
    07:00 -3°C° 0 mm 6 m/s 740 mmHg 74%
    08:00 -3°C° 0 mm 6 m/s 740 mmHg 73%
    09:00 -2°C° 0 mm 6 m/s 740 mmHg 72%
    10:00 -1°C° 0 mm 5 m/s 740 mmHg 70%
    11:00 0°C° 0 mm 5 m/s 740 mmHg 69%
    12:00 0°C° 0 mm 5 m/s 740 mmHg 68%
    13:00 0°C° 0 mm 4 m/s 740 mmHg 68%
    14:00 +1°C° 0 mm 4 m/s 739 mmHg 68%
    15:00 0°C° 0.2 mm 4 m/s 739 mmHg 73%
    16:00 +1°C° 0.2 mm 3 m/s 738 mmHg 78%
    17:00 0°C° 0.2 mm 3 m/s 738 mmHg 84%
    18:00 +1°C° 0.1 mm 2 m/s 737 mmHg 86%
    19:00 +1°C° 0.1 mm 2 m/s 737 mmHg 88%
    20:00 -1°C° 0.1 mm 2 m/s 737 mmHg 90%
    21:00 -1°C° 0 mm 2 m/s 737 mmHg 90%
    22:00 0°C° 0 mm 3 m/s 737 mmHg 90%
    23:00 0°C° 0 mm 3 m/s 738 mmHg 90%

    24 Martie, Duminică

    Timp Temperatura Precipitaţii Vânt Presiune Umiditate
    00:00 0°C° 0 mm 3 m/s 738 mmHg 88%
    01:00 -1°C° 0 mm 3 m/s 738 mmHg 87%
    02:00 -1°C° 0 mm 3 m/s 739 mmHg 85%
    03:00 -1°C° 0 mm 3 m/s 739 mmHg 86%
    04:00 -1°C° 0 mm 3 m/s 739 mmHg 86%
    05:00 -1°C° 0 mm 3 m/s 740 mmHg 86%
    06:00 -1°C° 0 mm 3 m/s 740 mmHg 84%
    07:00 -2°C° 0 mm 4 m/s 740 mmHg 82%
    08:00 -1°C° 0 mm 4 m/s 740 mmHg 80%
    09:00 -1°C° 0 mm 4 m/s 740 mmHg 77%
    10:00 0°C° 0 mm 4 m/s 740 mmHg 74%
    11:00 +1°C° 0 mm 3 m/s 740 mmHg 70%
    12:00 +2°C° 0 mm 3 m/s 740 mmHg 67%
    13:00 +2°C° 0 mm 3 m/s 740 mmHg 64%
    14:00 +3°C° 0 mm 3 m/s 740 mmHg 61%
    15:00 +4°C° 0 mm 2 m/s 739 mmHg 65%
    16:00 +3°C° 0 mm 2 m/s 739 mmHg 69%
    17:00 +4°C° 0 mm 1 m/s 738 mmHg 73%
    18:00 +3°C° 0 mm 1 m/s 738 mmHg 77%
    19:00 +2°C° 0 mm 1 m/s 737 mmHg 80%
    20:00 +1°C° 0 mm 1 m/s 737 mmHg 84%
    21:00 +1°C° 0 mm 1 m/s 736 mmHg 86%
    22:00 +1°C° 0 mm 1 m/s 735 mmHg 88%
    23:00 +1°C° 0 mm 1 m/s 734 mmHg 90%
    Arată mai mult